This is the latest recevied weather packets stored in our database for station/object K6GMW. If no packets are shown the sender has not sent any weather packets the latest 10 day(s).
| Time | Temp. | Humidity | Pressure | Rain* | Wind** | Luminosity | Snow |
|---|---|---|---|---|---|---|---|
| 1788289066 | 36.67° C | 43% | 1016.4 hPa | 0 mm | - | 1040 W/m² | - |
| 1788288765 | 36.67° C | 44% | 1016.5 hPa | 0 mm | - | 996 W/m² | - |
| 1788288461 | 36.11° C | 44% | 1016.8 hPa | 0 mm | - | 1025 W/m² | - |
| 1788288155 | 36.67° C | 44% | 1016.8 hPa | 0 mm | - | 180 W/m² | - |
| 1788287852 | 36.67° C | 44% | 1017 hPa | 0 mm | - | 987 W/m² | - |
| 1788287551 | 36.67° C | 43% | 1016.9 hPa | 0 mm | - | 1016 W/m² | - |
| 1788287247 | 35° C | 48% | 1017 hPa | 0 mm | - | 1070 W/m² | - |
| 1788286947 | 35° C | 47% | 1017 hPa | 0 mm | - | 161 W/m² | - |
| 1788286642 | 34.44° C | 48% | 1017.1 hPa | 0 mm | - | 1074 W/m² | - |
| 1788286341 | 35° C | 48% | 1017.2 hPa | 0 mm | - | 247 W/m² | - |
| 1788286040 | 36.67° C | 44% | 1017.3 hPa | 0 mm | - | 194 W/m² | - |
| 1788285740 | 36.11° C | 45% | 1017.4 hPa | 0 mm | - | 1014 W/m² | - |
| 1788285439 | 35° C | 47% | 1017.5 hPa | 0 mm | - | 997 W/m² | - |
| 1788285134 | 35.56° C | 45% | 1017.5 hPa | 0 mm | - | 178 W/m² | - |
| 1788284829 | 35.56° C | 48% | 1017.6 hPa | 0 mm | - | 1018 W/m² | - |
| 1788284525 | 35° C | 48% | 1017.7 hPa | 0 mm | - | 167 W/m² | - |
| 1788284221 | 35.56° C | 50% | 1018 hPa | 0 mm | - | 1015 W/m² | - |
| 1788283916 | 35° C | 49% | 1018.1 hPa | 0 mm | - | 1110 W/m² | - |
| 1788283612 | 35.56° C | 48% | 1018.2 hPa | 0 mm | - | 1001 W/m² | - |
| 1788283310 | 35.56° C | 51% | 1018.3 hPa | 0 mm | - | 1045 W/m² | - |
| 1788283010 | 35.56° C | 48% | 1018.3 hPa | 0 mm | - | 1023 W/m² | - |
| 1788282709 | 34.44° C | 51% | 1018.6 hPa | 0 mm | - | 1062 W/m² | - |
| 1788282408 | 35° C | 50% | 1018.4 hPa | 0 mm | - | 162 W/m² | - |
| 1788282103 | 33.89° C | 51% | 1018.6 hPa | 0 mm | - | 922 W/m² | - |
| 1788281802 | 33.89° C | 54% | 1018.6 hPa | 0 mm | - | 1038 W/m² | - |
* Rain latest hour (hover to see other rain measurements)
** Current wind speed in m/s (hover to see current wind gust speed)